Time,TemperatureF,DewpointF,PressureIn,WindDirection,WindDirectionDegrees,WindSpeedMPH,WindSpeedGustMPH,Humidity,HourlyPrecipIn,Conditions,Clouds,dailyrainin,SoftwareType,DateUTC
2013-07-05 00:03:00,70.9,50.8,29.99,NNE,15,0.0,0.0,49,0.00,CLR,,0.00,WeatherDisplay:10.37,2013-07-05 05:03:00,
2013-07-05 00:08:00,70.9,50.8,29.99,NNE,15,0.0,0.0,49,0.00,CLR,,0.00,WeatherDisplay:10.37,2013-07-05 05:08:00,
2013-07-05 00:13:00,70.9,50.8,29.99,NNE,15,0.0,0.0,49,0.00,CLR,,0.00,WeatherDisplay:10.37,2013-07-05 05:13:00,
2013-07-05 00:18:00,70.7,51.1,29.99,NNE,15,0.0,0.0,50,0.00,CLR,,0.00,WeatherDisplay:10.37,2013-07-05 05:18:00,
2013-07-05 00:23:00,70.7,51.1,29.99,NNE,15,0.0,0.0,50,0.00,CLR,,0.00,WeatherDisplay:10.37,2013-07-05 05:23:00,
2013-07-05 00:28:00,70.7,51.7,29.99,NNE,15,0.0,0.0,51,0.00,CLR,,0.00,WeatherDisplay:10.37,2013-07-05 05:28:00,
2013-07-05 00:33:00,70.7,51.7,29.99,NNE,15,0.0,0.0,51,0.00,CLR,,0.00,WeatherDisplay:10.37,2013-07-05 05:33:00,
2013-07-05 00:38:00,70.7,51.7,29.99,NNE,15,0.0,0.0,51,0.00,CLR,,0.00,WeatherDisplay:10.37,2013-07-05 05:38:00,
2013-07-05 00:43:00,70.7,51.7,29.99,NNE,15,0.0,0.0,51,0.00,CLR,,0.00,WeatherDisplay:10.37,2013-07-05 05:43:00,
2013-07-05 00:48:00,70.7,51.7,29.99,NNE,15,0.0,0.0,51,0.00,CLR,,0.00,WeatherDisplay:10.37,2013-07-05 05:48:00,
2013-07-05 00:53:00,70.7,51.7,29.99,NNE,15,0.0,0.0,51,0.00,CLR,,0.00,WeatherDisplay:10.37,2013-07-05 05:53:00,
2013-07-05 00:58:00,70.7,51.7,29.99,NNE,15,0.0,0.0,51,0.00,CLR,,0.00,WeatherDisplay:10.37,2013-07-05 05:58:00,
2013-07-05 01:03:00,70.7,51.7,29.99,NNE,15,0.0,0.0,51,0.00,CLR,,0.00,WeatherDisplay:10.37,2013-07-05 06:03:00,
2013-07-05 01:08:00,70.3,51.3,29.99,NNE,15,0.0,0.0,51,0.00,CLR,,0.00,WeatherDisplay:10.37,2013-07-05 06:08:00,
2013-07-05 01:13:00,70.3,51.9,29.99,NNE,15,0.0,0.0,52,0.00,CLR,,0.00,WeatherDisplay:10.37,2013-07-05 06:13:00,
2013-07-05 01:18:00,70.3,51.9,29.99,NNE,15,0.0,0.0,52,0.00,CLR,,0.00,WeatherDisplay:10.37,2013-07-05 06:18:00,
2013-07-05 01:23:00,70.3,51.9,29.99,NNE,15,0.0,0.0,52,0.00,CLR,,0.00,WeatherDisplay:10.37,2013-07-05 06:23:00,
2013-07-05 01:28:00,70.3,51.9,29.99,NNE,15,0.0,0.0,52,0.00,CLR,,0.00,WeatherDisplay:10.37,2013-07-05 06:28:00,
2013-07-05 01:33:00,70.3,51.9,29.99,NNE,15,0.0,0.0,52,0.00,CLR,,0.00,WeatherDisplay:10.37,2013-07-05 06:33:00,
2013-07-05 01:38:00,70.3,51.9,29.99,NNE,15,0.0,0.0,52,0.00,CLR,,0.00,WeatherDisplay:10.37,2013-07-05 06:38:00,
2013-07-05 01:43:00,70.3,51.9,29.99,NNE,15,0.0,0.0,52,0.00,CLR,,0.00,WeatherDisplay:10.37,2013-07-05 06:43:00,
2013-07-05 01:48:00,70.0,52.1,29.99,NNE,15,0.0,0.0,53,0.00,CLR,,0.00,WeatherDisplay:10.37,2013-07-05 06:48:00,
2013-07-05 01:53:00,70.0,52.1,29.99,NNE,15,0.0,0.0,53,0.00,CLR,,0.00,WeatherDisplay:10.37,2013-07-05 06:53:00,
2013-07-05 01:58:00,70.0,52.1,29.99,NNE,15,0.0,0.0,53,0.00,CLR,,0.00,WeatherDisplay:10.37,2013-07-05 06:58:00,
2013-07-05 02:03:00,70.0,52.1,29.99,NNE,15,0.0,0.0,53,0.00,CLR,,0.00,WeatherDisplay:10.37,2013-07-05 07:03:00,
2013-07-05 02:08:00,69.8,52.4,29.99,NNE,15,0.0,0.0,54,0.00,CLR,,0.00,WeatherDisplay:10.37,2013-07-05 07:08:00,
2013-07-05 02:13:00,69.8,52.4,29.99,NNE,15,0.0,0.0,54,0.00,CLR,,0.00,WeatherDisplay:10.37,2013-07-05 07:13:00,
2013-07-05 02:18:00,69.8,52.4,29.99,NNE,15,0.0,0.0,54,0.00,CLR,,0.00,WeatherDisplay:10.37,2013-07-05 07:18:00,
2013-07-05 02:23:00,69.8,52.4,29.99,NNE,15,0.0,0.0,54,0.00,CLR,,0.00,WeatherDisplay:10.37,2013-07-05 07:23:00,
2013-07-05 02:28:00,69.8,52.4,29.99,NNE,15,0.0,0.0,54,0.00,CLR,,0.00,WeatherDisplay:10.37,2013-07-05 07:28:00,
2013-07-05 02:33:00,69.8,52.4,29.96,NNE,15,0.0,0.0,54,0.00,CLR,,0.00,WeatherDisplay:10.37,2013-07-05 07:33:00,
2013-07-05 02:38:00,69.8,52.4,29.96,NNE,15,0.0,0.0,54,0.00,CLR,,0.00,WeatherDisplay:10.37,2013-07-05 07:38:00,
2013-07-05 02:43:00,69.8,52.4,29.96,NNE,15,0.0,0.0,54,0.00,CLR,,0.00,WeatherDisplay:10.37,2013-07-05 07:43:00,
2013-07-05 02:48:00,69.8,52.4,29.96,NNE,15,0.0,0.0,54,0.00,CLR,,0.00,WeatherDisplay:10.37,2013-07-05 07:48:00,
2013-07-05 02:53:00,69.4,54.0,29.96,NNE,15,0.0,0.0,58,0.00,CLR,,0.00,WeatherDisplay:10.37,2013-07-05 07:53:00,
2013-07-05 02:58:00,69.4,54.0,29.96,NNE,15,0.0,0.0,58,0.00,CLR,,0.00,WeatherDisplay:10.37,2013-07-05 07:58:00,
2013-07-05 03:03:00,69.4,54.0,29.96,NNE,15,0.0,0.0,58,0.00,CLR,,0.00,WeatherDisplay:10.37,2013-07-05 08:03:00,
2013-07-05 03:08:00,69.4,54.0,29.99,NNE,15,0.0,0.0,58,0.00,CLR,,0.00,WeatherDisplay:10.37,2013-07-05 08:08:00,
2013-07-05 03:13:00,69.3,54.3,29.99,NNE,15,0.0,0.0,59,0.00,CLR,,0.00,WeatherDisplay:10.37,2013-07-05 08:13:00,
2013-07-05 03:18:00,69.3,54.3,29.99,NNE,15,0.0,0.0,59,0.00,CLR,,0.00,WeatherDisplay:10.37,2013-07-05 08:18:00,
2013-07-05 03:23:00,69.3,54.3,29.99,NNE,15,0.0,0.0,59,0.00,CLR,,0.00,WeatherDisplay:10.37,2013-07-05 08:23:00,
2013-07-05 03:28:00,69.3,54.3,29.99,NNE,15,0.0,0.0,59,0.00,CLR,,0.00,WeatherDisplay:10.37,2013-07-05 08:28:00,
2013-07-05 03:33:00,69.3,54.3,29.99,NNE,15,0.0,0.0,59,0.00,CLR,,0.00,WeatherDisplay:10.37,2013-07-05 08:33:00,
2013-07-05 03:38:00,69.3,54.3,29.99,NNE,15,0.0,0.0,59,0.00,CLR,,0.00,WeatherDisplay:10.37,2013-07-05 08:38:00,
2013-07-05 03:43:00,69.3,54.3,29.99,NNE,15,0.0,0.0,59,0.00,CLR,,0.00,WeatherDisplay:10.37,2013-07-05 08:43:00,
2013-07-05 03:48:00,69.3,54.3,29.99,NNE,15,0.0,0.0,59,0.00,CLR,,0.00,WeatherDisplay:10.37,2013-07-05 08:48:00,
2013-07-05 03:53:00,69.3,54.3,29.99,NNE,15,0.0,0.0,59,0.00,CLR,,0.00,WeatherDisplay:10.37,2013-07-05 08:53:00,
2013-07-05 03:58:00,69.3,54.3,29.99,NNE,15,0.0,0.0,59,0.00,CLR,,0.00,WeatherDisplay:10.37,2013-07-05 08:58:00,
2013-07-05 04:03:00,69.3,54.3,29.99,NNE,15,0.0,0.0,59,0.00,CLR,,0.00,WeatherDisplay:10.37,2013-07-05 09:03:00,
2013-07-05 04:08:00,69.3,54.3,29.99,NNE,15,0.0,0.0,59,0.00,CLR,,0.00,WeatherDisplay:10.37,2013-07-05 09:08:00,
2013-07-05 04:13:00,69.3,54.3,29.99,NNE,15,0.0,0.0,59,0.00,CLR,,0.00,WeatherDisplay:10.37,2013-07-05 09:13:00,
2013-07-05 04:19:00,68.9,54.4,29.99,NNE,15,0.0,0.0,60,0.00,CLR,,0.00,WeatherDisplay:10.37,2013-07-05 09:19:00,
2013-07-05 04:24:00,68.9,54.4,29.99,NNE,15,0.0,0.0,60,0.00,CLR,,0.00,WeatherDisplay:10.37,2013-07-05 09:24:00,
2013-07-05 04:29:00,68.7,54.3,29.99,NNE,15,0.0,0.0,60,0.00,CLR,,0.00,WeatherDisplay:10.37,2013-07-05 09:29:00,
2013-07-05 04:34:00,68.5,54.1,29.99,NNE,15,0.0,0.0,60,0.00,CLR,,0.00,WeatherDisplay:10.37,2013-07-05 09:34:00,
2013-07-05 04:39:00,68.5,54.1,29.99,NNE,15,0.0,0.0,60,0.00,CLR,,0.00,WeatherDisplay:10.37,2013-07-05 09:39:00,
2013-07-05 04:45:00,68.5,54.1,29.99,NNE,15,0.0,0.0,60,0.00,CLR,,0.00,WeatherDisplay:10.37,2013-07-05 09:45:00,
2013-07-05 04:50:00,68.2,53.8,29.99,NNE,15,0.0,0.0,60,0.00,CLR,,0.00,WeatherDisplay:10.37,2013-07-05 09:50:00,
2013-07-05 04:55:00,68.2,53.8,29.99,NNE,15,0.0,0.0,60,0.00,CLR,,0.00,WeatherDisplay:10.37,2013-07-05 09:55:00,
2013-07-05 05:01:00,68.4,53.9,29.99,NNE,15,0.0,0.0,60,0.00,CLR,,0.00,WeatherDisplay:10.37,2013-07-05 10:01:00,
2013-07-05 05:06:00,68.4,54.4,29.99,NNE,15,0.0,0.0,61,0.00,CLR,,0.00,WeatherDisplay:10.37,2013-07-05 10:06:00,
2013-07-05 05:11:00,68.4,54.4,29.99,NNE,15,0.0,0.0,61,0.00,CLR,,0.00,WeatherDisplay:10.37,2013-07-05 10:11:00,
2013-07-05 05:16:00,68.4,54.4,29.99,NNE,15,0.0,0.0,61,0.00,CLR,,0.00,WeatherDisplay:10.37,2013-07-05 10:16:00,
2013-07-05 05:21:00,68.5,55.0,29.99,NNE,15,0.0,0.0,62,0.00,CLR,,0.00,WeatherDisplay:10.37,2013-07-05 10:21:00,
2013-07-05 05:26:00,68.7,55.2,29.99,NNE,15,0.0,0.0,62,0.00,CLR,,0.00,WeatherDisplay:10.37,2013-07-05 10:26:00,
2013-07-05 05:31:00,68.5,55.0,29.99,NNE,15,0.0,0.0,62,0.00,CLR,,0.00,WeatherDisplay:10.37,2013-07-05 10:31:00,
2013-07-05 05:36:00,68.5,55.0,29.99,NNE,15,0.0,0.0,62,0.00,CLR,,0.00,WeatherDisplay:10.37,2013-07-05 10:36:00,
2013-07-05 05:41:00,68.7,55.2,29.99,NNE,15,0.0,0.0,62,0.00,CLR,,0.00,WeatherDisplay:10.37,2013-07-05 10:41:00,
2013-07-05 05:46:00,68.7,55.6,29.99,NNE,15,0.0,0.0,63,0.00,CLR,,0.00,WeatherDisplay:10.37,2013-07-05 10:46:00,
2013-07-05 05:51:00,68.7,55.6,29.99,NNE,15,0.0,0.0,63,0.00,CLR,,0.00,WeatherDisplay:10.37,2013-07-05 10:51:00,
2013-07-05 05:56:00,68.7,56.0,29.99,NNE,15,0.0,0.0,64,0.00,CLR,,0.00,WeatherDisplay:10.37,2013-07-05 10:56:00,
2013-07-05 06:02:00,68.9,56.6,29.99,NNE,15,0.0,0.0,65,0.00,CLR,,0.00,WeatherDisplay:10.37,2013-07-05 11:02:00,
2013-07-05 06:07:00,69.1,56.4,29.99,NNE,15,0.0,0.0,64,0.00,CLR,,0.00,WeatherDisplay:10.37,2013-07-05 11:07:00,
2013-07-05 06:12:00,69.1,56.4,29.99,NNE,15,0.0,0.0,64,0.00,CLR,,0.00,WeatherDisplay:10.37,2013-07-05 11:12:00,
2013-07-05 06:17:00,69.1,56.4,29.99,NNE,15,0.0,0.0,64,0.00,CLR,,0.00,WeatherDisplay:10.37,2013-07-05 11:17:00,
2013-07-05 06:23:00,69.1,56.4,29.99,NNE,15,0.0,0.0,64,0.00,CLR,,0.00,WeatherDisplay:10.37,2013-07-05 11:23:00,
2013-07-05 06:28:00,69.1,56.4,29.99,NNE,15,0.0,0.0,64,0.00,CLR,,0.00,WeatherDisplay:10.37,2013-07-05 11:28:00,
2013-07-05 06:33:00,68.7,56.0,29.99,NNE,15,0.0,0.0,64,0.00,CLR,,0.00,WeatherDisplay:10.37,2013-07-05 11:33:00,
2013-07-05 06:38:00,68.7,56.0,29.99,NNE,15,0.0,0.0,64,0.00,CLR,,0.00,WeatherDisplay:10.37,2013-07-05 11:38:00,
2013-07-05 06:44:00,68.7,56.0,29.99,NNE,15,0.0,0.0,64,0.00,CLR,,0.00,WeatherDisplay:10.37,2013-07-05 11:44:00,
2013-07-05 06:49:00,68.7,56.0,30.02,NNE,15,0.0,0.0,64,0.00,CLR,,0.00,WeatherDisplay:10.37,2013-07-05 11:49:00,
2013-07-05 06:54:00,68.7,56.0,30.02,NNE,15,0.0,0.0,64,0.00,CLR,,0.00,WeatherDisplay:10.37,2013-07-05 11:54:00,
2013-07-05 06:59:00,68.7,56.0,30.02,NNE,15,0.0,0.0,64,0.00,CLR,,0.00,WeatherDisplay:10.37,2013-07-05 11:59:00,
2013-07-05 07:04:00,68.7,56.0,30.02,NNE,15,0.0,0.0,64,0.00,CLR,,0.00,WeatherDisplay:10.37,2013-07-05 12:04:00,
2013-07-05 07:09:00,68.7,56.0,30.02,NNE,15,0.0,0.0,64,0.00,CLR,,0.00,WeatherDisplay:10.37,2013-07-05 12:09:00,
2013-07-05 07:14:00,69.1,56.4,30.02,NNE,15,0.0,0.0,64,0.00,CLR,,0.00,WeatherDisplay:10.37,2013-07-05 12:14:00,
2013-07-05 07:20:00,69.3,57.0,30.02,NNE,15,0.0,0.0,65,0.00,CLR,,0.00,WeatherDisplay:10.37,2013-07-05 12:20:00,
2013-07-05 07:25:00,69.4,57.2,30.02,NNE,15,0.0,0.0,65,0.00,CLR,,0.00,WeatherDisplay:10.37,2013-07-05 12:25:00,
2013-07-05 07:30:00,69.6,56.9,30.02,NNE,15,0.0,0.0,64,0.00,CLR,,0.00,WeatherDisplay:10.37,2013-07-05 12:30:00,
2013-07-05 07:35:00,69.6,57.3,30.02,NNE,15,0.0,0.0,65,0.00,CLR,,0.00,WeatherDisplay:10.37,2013-07-05 12:35:00,
2013-07-05 07:40:00,69.8,57.9,30.02,NNE,15,0.0,0.0,66,0.00,CLR,,0.00,WeatherDisplay:10.37,2013-07-05 12:40:00,
2013-07-05 07:45:00,70.0,58.5,30.02,NNE,14,0.0,0.0,67,0.00,CLR,,0.00,WeatherDisplay:10.37,2013-07-05 12:45:00,
2013-07-05 07:50:00,70.2,59.1,30.02,NNE,21,0.0,0.0,68,0.00,CLR,,0.00,WeatherDisplay:10.37,2013-07-05 12:50:00,
2013-07-05 07:55:00,70.5,59.9,30.02,NNE,21,0.0,0.0,69,0.00,CLR,,0.00,WeatherDisplay:10.37,2013-07-05 12:55:00,
2013-07-05 08:00:00,70.5,59.9,30.02,NNE,21,0.0,0.0,69,0.00,CLR,,0.00,WeatherDisplay:10.37,2013-07-05 13:00:00,
2013-07-05 08:05:00,70.7,60.4,30.02,NNE,21,0.0,0.0,70,0.00,CLR,,0.00,WeatherDisplay:10.37,2013-07-05 13:05:00,
2013-07-05 08:10:00,71.1,60.8,30.02,NNE,21,0.0,0.0,70,0.00,CLR,,0.00,WeatherDisplay:10.37,2013-07-05 13:10:00,
2013-07-05 08:16:00,71.4,61.5,30.02,NNE,17,0.0,0.0,71,0.00,CLR,,0.00,WeatherDisplay:10.37,2013-07-05 13:16:00,
2013-07-05 08:21:00,71.6,61.7,30.02,NNE,17,0.0,0.0,71,0.00,CLR,,0.00,WeatherDisplay:10.37,2013-07-05 13:21:00,
2013-07-05 08:26:00,72.0,62.4,30.02,NNE,14,0.0,0.0,72,0.00,CLR,,0.00,WeatherDisplay:10.37,2013-07-05 13:26:00,
2013-07-05 08:31:00,72.3,63.2,30.02,NNE,14,0.0,0.0,73,0.00,CLR,,0.00,WeatherDisplay:10.37,2013-07-05 13:31:00,
2013-07-05 08:36:00,72.7,63.5,30.02,NNE,14,0.0,0.0,73,0.00,CLR,,0.00,WeatherDisplay:10.37,2013-07-05 13:36:00,
2013-07-05 08:41:00,73.0,63.9,30.02,NNE,14,0.0,0.0,73,0.00,CLR,,0.00,WeatherDisplay:10.37,2013-07-05 13:41:00,
2013-07-05 08:46:00,73.2,64.0,30.02,NNE,14,0.0,0.0,73,0.00,CLR,,0.00,WeatherDisplay:10.37,2013-07-05 13:46:00,
2013-07-05 08:51:00,73.6,64.0,30.02,NNE,30,0.0,0.0,72,0.00,CLR,,0.00,WeatherDisplay:10.37,2013-07-05 13:51:00,
2013-07-05 08:56:00,73.8,64.2,30.02,SW,221,0.0,0.0,72,0.00,CLR,,0.00,WeatherDisplay:10.37,2013-07-05 13:56:00,
2013-07-05 09:01:00,74.1,64.5,30.02,SE,145,0.0,0.0,72,0.00,CLR,,0.00,WeatherDisplay:10.37,2013-07-05 14:01:00,
2013-07-05 09:07:00,74.3,64.3,30.02,North,357,0.0,0.0,71,0.00,CLR,,0.00,WeatherDisplay:10.37,2013-07-05 14:07:00,
2013-07-05 09:12:00,74.7,64.2,30.02,North,357,0.0,0.0,70,0.00,CLR,,0.00,WeatherDisplay:10.37,2013-07-05 14:12:00,
2013-07-05 09:17:00,75.0,64.2,30.02,North,0,0.0,0.0,69,0.00,CLR,,0.00,WeatherDisplay:10.37,2013-07-05 14:17:00,
2013-07-05 09:22:00,75.0,64.2,30.02,NW,320,0.0,0.0,69,0.00,CLR,,0.00,WeatherDisplay:10.37,2013-07-05 14:22:00,
2013-07-05 09:27:00,75.4,64.1,30.02,NW,323,0.0,0.0,68,0.00,CLR,,0.00,WeatherDisplay:10.37,2013-07-05 14:27:00,
2013-07-05 09:32:00,75.9,64.6,30.02,NNW,330,0.0,0.0,68,0.00,CLR,,0.00,WeatherDisplay:10.37,2013-07-05 14:32:00,
2013-07-05 09:37:00,76.3,64.5,30.02,ENE,66,0.0,0.0,67,0.00,CLR,,0.00,WeatherDisplay:10.37,2013-07-05 14:37:00,
2013-07-05 09:42:00,76.1,63.0,30.02,North,2,0.0,0.0,64,0.00,CLR,,0.00,WeatherDisplay:10.37,2013-07-05 14:42:00,
2013-07-05 09:47:00,76.5,63.4,30.02,North,11,0.0,0.0,64,0.00,CLR,,0.00,WeatherDisplay:10.37,2013-07-05 14:47:00,
2013-07-05 09:52:00,76.8,63.3,30.02,NNE,19,0.0,0.0,63,0.00,CLR,,0.00,WeatherDisplay:10.37,2013-07-05 14:52:00,
2013-07-05 09:57:00,77.0,62.0,30.02,WSW,253,0.0,0.0,60,0.00,CLR,,0.00,WeatherDisplay:10.37,2013-07-05 14:57:00,
2013-07-05 10:02:00,77.4,62.4,30.02,West,269,0.0,3.5,60,0.00,CLR,,0.00,WeatherDisplay:10.37,2013-07-05 15:02:00,
2013-07-05 10:07:00,77.5,62.1,30.02,SW,218,0.0,0.0,59,0.00,CLR,,0.00,WeatherDisplay:10.37,2013-07-05 15:07:00,
2013-07-05 10:12:00,77.7,61.8,30.02,West,266,0.0,0.0,58,0.00,CLR,,0.00,WeatherDisplay:10.37,2013-07-05 15:12:00,
2013-07-05 10:17:00,78.3,61.8,30.02,NW,307,0.0,3.5,57,0.00,CLR,,0.00,WeatherDisplay:10.37,2013-07-05 15:17:00,
2013-07-05 10:22:00,79.0,61.9,30.02,WNW,296,0.0,0.0,56,0.00,CLR,,0.00,WeatherDisplay:10.37,2013-07-05 15:22:00,
2013-07-05 10:27:00,81.0,62.2,30.02,WNW,302,0.0,3.5,53,0.00,CLR,,0.00,WeatherDisplay:10.37,2013-07-05 15:27:00,
2013-07-05 10:32:00,81.3,60.3,30.02,WNW,302,0.0,0.0,49,0.00,CLR,,0.00,WeatherDisplay:10.37,2013-07-05 15:32:00,
2013-07-05 10:37:00,81.1,60.2,30.02,SSE,157,2.2,0.0,49,0.00,CLR,,0.00,WeatherDisplay:10.37,2013-07-05 15:37:00,
2013-07-05 10:42:00,81.0,60.0,30.02,South,185,0.0,3.5,49,0.00,CLR,,0.00,WeatherDisplay:10.37,2013-07-05 15:42:00,
2013-07-05 10:48:00,80.8,59.3,30.02,SSE,158,0.0,0.0,48,0.00,CLR,,0.00,WeatherDisplay:10.37,2013-07-05 15:48:00,
2013-07-05 10:51:00,80.6,59.1,30.02,ESE,119,0.0,2.3,48,0.00,CLR,,0.00,WeatherDisplay:10.37,2013-07-05 15:51:00,
2013-07-05 10:56:00,80.6,59.1,30.02,North,2,0.0,2.3,48,0.00,CLR,,0.00,WeatherDisplay:10.37,2013-07-05 15:56:00,
2013-07-05 11:01:00,80.6,58.5,30.02,ENE,68,0.0,2.3,47,0.00,CLR,,0.00,WeatherDisplay:10.37,2013-07-05 16:01:00,
2013-07-05 11:06:00,80.6,57.9,30.02,North,3,0.0,0.0,46,0.00,CLR,,0.00,WeatherDisplay:10.37,2013-07-05 16:06:00,
2013-07-05 11:11:00,80.6,57.9,30.02,North,4,0.0,0.0,46,0.00,CLR,,0.00,WeatherDisplay:10.37,2013-07-05 16:11:00,
2013-07-05 11:16:00,80.8,58.1,30.02,North,8,2.2,3.5,46,0.00,CLR,,0.00,WeatherDisplay:10.37,2013-07-05 16:16:00,
2013-07-05 11:21:00,81.0,58.2,30.02,NE,55,0.0,0.0,46,0.00,CLR,,0.00,WeatherDisplay:10.37,2013-07-05 16:21:00,
2013-07-05 11:26:00,81.1,58.4,30.02,North,4,0.0,2.3,46,0.00,CLR,,0.00,WeatherDisplay:10.37,2013-07-05 16:26:00,
2013-07-05 11:31:00,81.1,58.4,30.02,ENE,57,0.0,0.0,46,0.00,CLR,,0.00,WeatherDisplay:10.37,2013-07-05 16:31:00,
2013-07-05 11:36:00,81.7,58.9,30.02,WNW,284,0.0,0.0,46,0.00,CLR,,0.00,WeatherDisplay:10.37,2013-07-05 16:36:00,
2013-07-05 11:41:00,82.2,59.4,30.02,SSW,199,2.7,3.5,46,0.00,CLR,,0.00,WeatherDisplay:10.37,2013-07-05 16:41:00,
2013-07-05 11:46:00,82.8,59.9,30.02,SSW,196,0.0,2.3,46,0.00,CLR,,0.00,WeatherDisplay:10.37,2013-07-05 16:46:00,
2013-07-05 11:51:00,82.9,59.4,30.02,SSW,209,0.0,3.5,45,0.00,CLR,,0.00,WeatherDisplay:10.37,2013-07-05 16:51:00,
2013-07-05 11:56:00,82.9,59.4,30.02,South,183,0.0,3.5,45,0.00,CLR,,0.00,WeatherDisplay:10.37,2013-07-05 16:56:00,
2013-07-05 12:01:00,82.9,59.4,30.02,SSW,212,0.0,2.7,45,0.00,CLR,,0.00,WeatherDisplay:10.37,2013-07-05 17:01:00,
2013-07-05 12:06:00,82.8,59.3,30.02,North,4,3.1,3.5,45,0.00,CLR,,0.00,WeatherDisplay:10.37,2013-07-05 17:06:00,
2013-07-05 12:11:00,82.9,57.5,30.02,SSE,152,0.0,0.0,42,0.00,CLR,,0.00,WeatherDisplay:10.37,2013-07-05 17:11:00,
2013-07-05 12:16:00,83.5,58.0,30.02,SE,131,0.0,2.3,42,0.00,CLR,,0.00,WeatherDisplay:10.37,2013-07-05 17:16:00,
2013-07-05 12:21:00,83.5,58.0,30.02,SSE,159,2.7,3.5,42,0.00,CLR,,0.00,WeatherDisplay:10.37,2013-07-05 17:21:00,
2013-07-05 12:26:00,83.5,58.0,30.02,South,169,0.0,2.3,42,0.00,CLR,,0.00,WeatherDisplay:10.37,2013-07-05 17:26:00,
2013-07-05 12:31:00,83.8,58.3,30.02,SSE,155,0.0,2.7,42,0.00,CLR,,0.00,WeatherDisplay:10.37,2013-07-05 17:31:00,
2013-07-05 12:36:00,84.2,58.6,30.02,North,350,0.0,0.0,42,0.00,CLR,,0.00,WeatherDisplay:10.37,2013-07-05 17:36:00,
2013-07-05 12:41:00,84.2,56.6,30.02,SSE,149,0.0,0.0,39,0.00,CLR,,0.00,WeatherDisplay:10.37,2013-07-05 17:41:00,
2013-07-05 12:46:00,84.0,57.1,30.02,East,80,2.7,5.8,40,0.00,CLR,,0.00,WeatherDisplay:10.37,2013-07-05 17:46:00,
2013-07-05 12:51:00,84.2,56.6,30.02,SSW,209,3.1,3.5,39,0.00,CLR,,0.00,WeatherDisplay:10.37,2013-07-05 17:51:00,
2013-07-05 12:56:00,84.4,56.7,30.02,NNE,19,0.0,0.0,39,0.00,CLR,,0.00,WeatherDisplay:10.37,2013-07-05 17:56:00,
2013-07-05 13:01:00,84.4,56.7,30.02,North,8,0.0,2.3,39,0.00,CLR,,0.00,WeatherDisplay:10.37,2013-07-05 18:01:00,
2013-07-05 13:06:00,84.4,56.7,29.99,SE,139,0.0,2.3,39,0.00,CLR,,0.00,WeatherDisplay:10.37,2013-07-05 18:06:00,
2013-07-05 13:11:00,84.4,56.7,29.99,NNE,28,0.0,3.5,39,0.00,CLR,,0.00,WeatherDisplay:10.37,2013-07-05 18:11:00,
2013-07-05 13:13:00,84.2,56.6,29.99,ENE,78,2.7,5.8,39,0.00,CLR,,0.00,WeatherDisplay:10.37,2013-07-05 18:13:00,
2013-07-05 13:18:00,84.0,57.1,29.99,ENE,65,2.2,2.7,40,0.00,CLR,,0.00,WeatherDisplay:10.37,2013-07-05 18:18:00,
2013-07-05 13:20:00,84.0,57.1,29.99,East,90,0.0,0.0,40,0.00,CLR,,0.00,WeatherDisplay:10.37,2013-07-05 18:20:00,
2013-07-05 13:25:00,84.2,56.6,29.99,South,179,2.7,3.5,39,0.00,CLR,,0.00,WeatherDisplay:10.37,2013-07-05 18:25:00,
2013-07-05 13:30:00,84.6,56.9,29.99,WSW,243,0.0,2.3,39,0.00,CLR,,0.00,WeatherDisplay:10.37,2013-07-05 18:30:00,
2013-07-05 13:35:00,84.4,56.7,29.99,NE,53,2.2,3.5,39,0.00,CLR,,0.00,WeatherDisplay:10.37,2013-07-05 18:35:00,
2013-07-05 13:40:00,84.2,56.6,29.99,East,81,0.0,3.5,39,0.00,CLR,,0.00,WeatherDisplay:10.37,2013-07-05 18:40:00,
2013-07-05 13:45:00,84.4,56.7,29.99,North,9,2.7,3.5,39,0.00,CLR,,0.00,WeatherDisplay:10.37,2013-07-05 18:45:00,
2013-07-05 13:50:00,84.7,57.0,29.99,WNW,297,2.7,3.5,39,0.00,CLR,,0.00,WeatherDisplay:10.37,2013-07-05 18:50:00,
2013-07-05 13:55:00,85.1,57.4,29.99,WSW,241,3.1,4.6,39,0.00,CLR,,0.00,WeatherDisplay:10.37,2013-07-05 18:55:00,
2013-07-05 14:00:00,85.3,57.5,29.99,SE,134,3.1,3.5,39,0.00,CLR,,0.00,WeatherDisplay:10.37,2013-07-05 19:00:00,
2013-07-05 14:05:00,84.7,57.0,29.99,SE,134,0.0,0.0,39,0.00,CLR,,0.00,WeatherDisplay:10.37,2013-07-05 19:05:00,
2013-07-05 14:10:00,84.6,56.9,29.99,NE,45,0.0,0.0,39,0.00,CLR,,0.00,WeatherDisplay:10.37,2013-07-05 19:10:00,
2013-07-05 14:15:00,84.7,57.0,29.99,North,11,2.2,3.5,39,0.00,CLR,,0.00,WeatherDisplay:10.37,2013-07-05 19:15:00,
2013-07-05 14:20:00,85.1,57.4,29.99,NNE,19,0.0,0.0,39,0.00,CLR,,0.00,WeatherDisplay:10.37,2013-07-05 19:20:00,
2013-07-05 14:25:00,85.1,57.4,29.99,SE,128,0.0,0.0,39,0.00,CLR,,0.00,WeatherDisplay:10.37,2013-07-05 19:25:00,
2013-07-05 14:30:00,85.3,57.5,29.99,SSE,157,2.2,3.5,39,0.00,CLR,,0.00,WeatherDisplay:10.37,2013-07-05 19:30:00,
2013-07-05 14:35:00,85.5,57.7,29.99,ENE,75,0.0,2.3,39,0.00,CLR,,0.00,WeatherDisplay:10.37,2013-07-05 19:35:00,
2013-07-05 14:40:00,85.8,58.0,29.99,West,267,2.7,3.5,39,0.00,CLR,,0.00,WeatherDisplay:10.37,2013-07-05 19:40:00,
2013-07-05 14:45:00,85.8,58.0,29.99,North,3,2.2,3.5,39,0.00,CLR,,0.00,WeatherDisplay:10.37,2013-07-05 19:45:00,
2013-07-05 14:50:00,85.8,58.0,29.96,North,357,2.7,3.5,39,0.00,CLR,,0.00,WeatherDisplay:10.37,2013-07-05 19:50:00,
2013-07-05 14:55:00,86.2,58.3,29.96,NNE,25,3.1,3.5,39,0.00,CLR,,0.00,WeatherDisplay:10.37,2013-07-05 19:55:00,
2013-07-05 15:00:00,86.2,58.3,29.96,East,99,2.2,3.5,39,0.00,CLR,,0.00,WeatherDisplay:10.37,2013-07-05 20:00:00,
2013-07-05 15:02:00,86.2,58.3,29.96,East,99,0.0,2.3,39,0.00,CLR,,0.00,WeatherDisplay:10.37,2013-07-05 20:02:00,
2013-07-05 15:07:00,86.5,58.6,29.96,ENE,58,2.7,3.5,39,0.00,CLR,,0.00,WeatherDisplay:10.37,2013-07-05 20:07:00,
2013-07-05 15:12:00,86.4,58.5,29.96,North,0,2.7,5.4,39,0.00,CLR,,0.00,WeatherDisplay:10.37,2013-07-05 20:12:00,
2013-07-05 15:17:00,85.5,57.7,29.96,WNW,294,4.0,4.0,39,0.00,CLR,,0.00,WeatherDisplay:10.37,2013-07-05 20:17:00,
2013-07-05 15:22:00,84.7,57.0,29.99,South,189,3.6,3.6,39,0.00,CLR,,0.00,WeatherDisplay:10.37,2013-07-05 20:22:00,
2013-07-05 15:27:00,83.8,56.9,29.99,NNE,20,0.0,2.7,40,0.00,CLR,,0.00,WeatherDisplay:10.37,2013-07-05 20:27:00,
2013-07-05 15:30:00,83.7,56.8,29.99,SE,136,2.7,5.8,40,0.00,CLR,,0.00,WeatherDisplay:10.37,2013-07-05 20:30:00,
2013-07-05 15:35:00,83.5,56.6,29.99,NNW,327,2.2,3.5,40,0.00,CLR,,0.00,WeatherDisplay:10.37,2013-07-05 20:35:00,
2013-07-05 15:40:00,83.7,56.8,29.99,SSE,153,2.7,3.5,40,0.00,CLR,,0.00,WeatherDisplay:10.37,2013-07-05 20:40:00,
2013-07-05 15:45:00,83.8,56.9,29.99,North,4,2.2,5.8,40,0.00,CLR,,0.00,WeatherDisplay:10.37,2013-07-05 20:45:00,
2013-07-05 15:50:00,84.2,56.6,29.99,SSE,166,3.6,5.8,39,0.00,CLR,,0.00,WeatherDisplay:10.37,2013-07-05 20:50:00,
2013-07-05 15:55:00,84.2,56.6,29.99,ESE,102,3.1,4.6,39,0.00,CLR,,0.00,WeatherDisplay:10.37,2013-07-05 20:55:00,
2013-07-05 16:00:00,83.8,56.9,29.99,East,85,3.6,8.1,40,0.00,CLR,,0.00,WeatherDisplay:10.37,2013-07-05 21:00:00,
2013-07-05 16:05:00,83.5,56.6,29.99,SE,131,2.2,3.5,40,0.00,CLR,,0.00,WeatherDisplay:10.37,2013-07-05 21:05:00,
2013-07-05 16:10:00,83.1,56.3,29.99,NNW,338,2.7,5.8,40,0.00,CLR,,0.00,WeatherDisplay:10.37,2013-07-05 21:10:00,
2013-07-05 16:15:00,82.9,56.1,29.99,SSE,147,2.7,3.5,40,0.00,CLR,,0.00,WeatherDisplay:10.37,2013-07-05 21:15:00,
2013-07-05 16:20:00,82.8,56.0,29.99,North,357,2.2,2.3,40,0.00,CLR,,0.00,WeatherDisplay:10.37,2013-07-05 21:20:00,
2013-07-05 16:25:00,82.6,55.8,29.99,NE,50,0.0,3.5,40,0.00,CLR,,0.00,WeatherDisplay:10.37,2013-07-05 21:25:00,
2013-07-05 16:30:00,82.6,55.8,29.99,SE,126,0.0,0.0,40,0.00,CLR,,0.00,WeatherDisplay:10.37,2013-07-05 21:30:00,
2013-07-05 16:35:00,82.4,55.7,29.99,East,92,0.0,0.0,40,0.00,CLR,,0.00,WeatherDisplay:10.37,2013-07-05 21:35:00,
2013-07-05 16:40:00,82.2,55.5,29.99,SSE,163,2.2,3.5,40,0.00,CLR,,0.00,WeatherDisplay:10.37,2013-07-05 21:40:00,
2013-07-05 16:45:00,82.4,55.7,29.99,NW,305,0.0,4.6,40,0.00,CLR,,0.00,WeatherDisplay:10.37,2013-07-05 21:45:00,
2013-07-05 16:50:00,82.6,55.8,29.96,SE,125,3.1,5.8,40,0.00,CLR,,0.00,WeatherDisplay:10.37,2013-07-05 21:50:00,
2013-07-05 16:55:00,82.6,55.8,29.96,SE,143,2.7,3.5,40,0.00,CLR,,0.00,WeatherDisplay:10.37,2013-07-05 21:55:00,
2013-07-05 17:00:00,82.4,55.7,29.96,SSW,192,0.0,3.5,40,0.00,CLR,,0.00,WeatherDisplay:10.37,2013-07-05 22:00:00,
2013-07-05 17:05:00,82.0,55.3,29.96,SSE,163,0.0,0.0,40,0.00,CLR,,0.00,WeatherDisplay:10.37,2013-07-05 22:05:00,
2013-07-05 17:10:00,81.7,55.0,29.96,WSW,237,0.0,0.0,40,0.00,CLR,,0.00,WeatherDisplay:10.37,2013-07-05 22:10:00,
2013-07-05 17:15:00,81.7,55.0,29.96,SSW,211,0.0,0.0,40,0.00,CLR,,0.00,WeatherDisplay:10.37,2013-07-05 22:15:00,
2013-07-05 17:20:00,81.7,55.0,29.96,North,357,0.0,3.5,40,0.00,CLR,,0.00,WeatherDisplay:10.37,2013-07-05 22:20:00,
2013-07-05 17:25:00,81.5,54.8,29.96,North,357,0.0,0.0,40,0.00,CLR,,0.00,WeatherDisplay:10.37,2013-07-05 22:25:00,
2013-07-05 17:30:00,81.3,54.7,29.96,NNW,348,0.0,3.5,40,0.00,CLR,,0.00,WeatherDisplay:10.37,2013-07-05 22:30:00,
2013-07-05 17:35:00,81.3,54.7,29.93,NE,40,0.0,0.0,40,0.00,CLR,,0.00,WeatherDisplay:10.37,2013-07-05 22:35:00,
2013-07-05 17:40:00,81.1,54.5,29.93,North,8,0.0,2.3,40,0.00,CLR,,0.00,WeatherDisplay:10.37,2013-07-05 22:40:00,
2013-07-05 17:45:00,81.1,54.5,29.93,ESE,121,0.0,3.5,40,0.00,CLR,,0.00,WeatherDisplay:10.37,2013-07-05 22:45:00,
2013-07-05 17:50:00,81.1,54.5,29.93,SSW,210,0.0,0.0,40,0.00,CLR,,0.00,WeatherDisplay:10.37,2013-07-05 22:50:00,
2013-07-05 17:55:00,81.1,54.5,29.93,SSW,210,0.0,0.0,40,0.00,CLR,,0.00,WeatherDisplay:10.37,2013-07-05 22:55:00,
2013-07-05 18:00:00,81.0,54.4,29.93,SSW,201,2.2,2.3,40,0.00,CLR,,0.00,WeatherDisplay:10.37,2013-07-05 23:00:00,
2013-07-05 18:05:00,81.0,54.4,29.96,NNW,333,0.0,2.3,40,0.00,CLR,,0.00,WeatherDisplay:10.37,2013-07-05 23:05:00,
2013-07-05 18:10:00,81.0,54.4,29.96,SE,141,0.0,2.3,40,0.00,CLR,,0.00,WeatherDisplay:10.37,2013-07-05 23:10:00,
2013-07-05 18:15:00,80.8,54.2,29.96,SW,220,0.0,0.0,40,0.00,CLR,,0.00,WeatherDisplay:10.37,2013-07-05 23:15:00,
2013-07-05 18:20:00,80.8,54.2,29.96,SSW,213,0.0,0.0,40,0.00,CLR,,0.00,WeatherDisplay:10.37,2013-07-05 23:20:00,
2013-07-05 18:25:00,80.6,54.0,29.96,SW,217,0.0,0.0,40,0.00,CLR,,0.00,WeatherDisplay:10.37,2013-07-05 23:25:00,
2013-07-05 18:30:00,80.6,54.0,29.96,SW,217,0.0,0.0,40,0.00,CLR,,0.00,WeatherDisplay:10.37,2013-07-05 23:30:00,
2013-07-05 18:35:00,80.4,54.6,29.96,SW,217,0.0,0.0,41,0.00,CLR,,0.00,WeatherDisplay:10.37,2013-07-05 23:35:00,
2013-07-05 18:40:00,80.4,54.6,29.96,SW,217,0.0,0.0,41,0.00,CLR,,0.00,WeatherDisplay:10.37,2013-07-05 23:40:00,
2013-07-05 18:45:00,80.2,54.4,29.96,SW,217,0.0,0.0,41,0.00,CLR,,0.00,WeatherDisplay:10.37,2013-07-05 23:45:00,
2013-07-05 18:50:00,80.1,54.2,29.96,SW,217,0.0,0.0,41,0.00,CLR,,0.00,WeatherDisplay:10.37,2013-07-05 23:50:00,
2013-07-05 18:55:00,80.1,54.2,29.96,SW,217,0.0,0.0,41,0.00,CLR,,0.00,WeatherDisplay:10.37,2013-07-05 23:55:00,
2013-07-05 19:00:00,79.9,54.1,29.96,SW,217,0.0,0.0,41,0.00,CLR,,0.00,WeatherDisplay:10.37,2013-07-06 00:00:00,
2013-07-05 19:05:00,79.7,53.9,29.96,SW,217,0.0,0.0,41,0.00,CLR,,0.00,WeatherDisplay:10.37,2013-07-06 00:05:00,
2013-07-05 19:07:00,79.5,53.8,29.96,SW,217,0.0,0.0,41,0.00,CLR,,0.00,WeatherDisplay:10.37,2013-07-06 00:07:00,
2013-07-05 19:12:00,79.5,53.8,29.96,SW,217,0.0,0.0,41,0.00,CLR,,0.00,WeatherDisplay:10.37,2013-07-06 00:12:00,
2013-07-05 19:17:00,79.3,53.6,29.96,SW,217,0.0,0.0,41,0.00,CLR,,0.00,WeatherDisplay:10.37,2013-07-06 00:17:00,
2013-07-05 19:22:00,79.2,53.4,29.96,SW,217,0.0,0.0,41,0.00,CLR,,0.00,WeatherDisplay:10.37,2013-07-06 00:22:00,
2013-07-05 19:27:00,78.8,53.1,29.96,SW,217,0.0,0.0,41,0.00,CLR,,0.00,WeatherDisplay:10.37,2013-07-06 00:27:00,
2013-07-05 19:32:00,78.8,53.1,29.96,SW,217,0.0,0.0,41,0.00,CLR,,0.00,WeatherDisplay:10.37,2013-07-06 00:32:00,
2013-07-05 19:37:00,78.6,52.9,29.93,SW,217,0.0,0.0,41,0.00,CLR,,0.00,WeatherDisplay:10.37,2013-07-06 00:37:00,
2013-07-05 19:42:00,78.3,52.6,29.93,SW,217,0.0,0.0,41,0.00,CLR,,0.00,WeatherDisplay:10.37,2013-07-06 00:42:00,
2013-07-05 19:47:00,77.9,54.2,29.93,SW,217,0.0,0.0,44,0.00,CLR,,0.00,WeatherDisplay:10.37,2013-07-06 00:47:00,
2013-07-05 19:52:00,77.5,53.9,29.93,SW,217,0.0,0.0,44,0.00,CLR,,0.00,WeatherDisplay:10.37,2013-07-06 00:52:00,
2013-07-05 19:57:00,77.0,53.4,29.93,SW,217,0.0,0.0,44,0.00,CLR,,0.00,WeatherDisplay:10.37,2013-07-06 00:57:00,
2013-07-05 20:02:00,76.6,53.1,29.93,SW,217,0.0,0.0,44,0.00,CLR,,0.00,WeatherDisplay:10.37,2013-07-06 01:02:00,
2013-07-05 20:07:00,76.3,52.8,29.93,SW,217,0.0,0.0,44,0.00,CLR,,0.00,WeatherDisplay:10.37,2013-07-06 01:07:00,
2013-07-05 20:12:00,75.9,52.4,29.93,SW,217,0.0,0.0,44,0.00,CLR,,0.00,WeatherDisplay:10.37,2013-07-06 01:12:00,
2013-07-05 20:17:00,75.7,52.3,29.93,SW,217,0.0,0.0,44,0.00,CLR,,0.00,WeatherDisplay:10.37,2013-07-06 01:17:00,
2013-07-05 20:22:00,75.6,52.1,29.93,SW,217,0.0,0.0,44,0.00,CLR,,0.00,WeatherDisplay:10.37,2013-07-06 01:22:00,
2013-07-05 20:27:00,75.0,51.6,29.93,SW,217,0.0,0.0,44,0.00,CLR,,0.00,WeatherDisplay:10.37,2013-07-06 01:27:00,
2013-07-05 20:32:00,74.7,51.3,29.93,SW,217,0.0,0.0,44,0.00,CLR,,0.00,WeatherDisplay:10.37,2013-07-06 01:32:00,
2013-07-05 20:37:00,74.3,51.0,29.96,SW,217,0.0,0.0,44,0.00,CLR,,0.00,WeatherDisplay:10.37,2013-07-06 01:37:00,
2013-07-05 20:38:00,74.3,51.0,29.96,SW,217,0.0,0.0,44,0.00,CLR,,0.00,WeatherDisplay:10.37,2013-07-06 01:38:00,
2013-07-05 20:43:00,74.1,50.8,29.96,SW,217,0.0,0.0,44,0.00,CLR,,0.00,WeatherDisplay:10.37,2013-07-06 01:43:00,
2013-07-05 20:48:00,74.1,50.8,29.96,SW,217,0.0,0.0,44,0.00,CLR,,0.00,WeatherDisplay:10.37,2013-07-06 01:48:00,
2013-07-05 20:53:00,74.1,50.8,29.96,SW,217,0.0,0.0,44,0.00,CLR,,0.00,WeatherDisplay:10.37,2013-07-06 01:53:00,
2013-07-05 20:58:00,73.8,50.5,29.96,SW,217,0.0,0.0,44,0.00,CLR,,0.00,WeatherDisplay:10.37,2013-07-06 01:58:00,
2013-07-05 21:03:00,73.4,50.2,29.96,SW,217,0.0,0.0,44,0.00,CLR,,0.00,WeatherDisplay:10.37,2013-07-06 02:03:00,
2013-07-05 21:08:00,73.0,50.4,29.96,SW,217,0.0,0.0,45,0.00,CLR,,0.00,WeatherDisplay:10.37,2013-07-06 02:08:00,
2013-07-05 21:13:00,72.9,50.3,29.96,SW,217,0.0,0.0,45,0.00,CLR,,0.00,WeatherDisplay:10.37,2013-07-06 02:13:00,
2013-07-05 21:18:00,72.9,50.3,29.96,SW,217,0.0,0.0,45,0.00,CLR,,0.00,WeatherDisplay:10.37,2013-07-06 02:18:00,
2013-07-05 21:23:00,72.9,50.3,29.96,SW,217,0.0,0.0,45,0.00,CLR,,0.00,WeatherDisplay:10.37,2013-07-06 02:23:00,
2013-07-05 21:28:00,72.9,50.3,29.96,SW,217,0.0,0.0,45,0.00,CLR,,0.00,WeatherDisplay:10.37,2013-07-06 02:28:00,
2013-07-05 21:33:00,72.9,50.3,29.96,SW,217,0.0,0.0,45,0.00,CLR,,0.00,WeatherDisplay:10.37,2013-07-06 02:33:00,
2013-07-05 21:38:00,72.3,49.8,29.96,SW,217,0.0,0.0,45,0.00,CLR,,0.00,WeatherDisplay:10.37,2013-07-06 02:38:00,
2013-07-05 21:43:00,72.0,50.6,29.96,SW,217,0.0,0.0,47,0.00,CLR,,0.00,WeatherDisplay:10.37,2013-07-06 02:43:00,
2013-07-05 21:48:00,71.6,50.3,29.96,SW,217,0.0,0.0,47,0.00,CLR,,0.00,WeatherDisplay:10.37,2013-07-06 02:48:00,
2013-07-05 21:53:00,71.6,50.3,29.96,SW,217,0.0,0.0,47,0.00,CLR,,0.00,WeatherDisplay:10.37,2013-07-06 02:53:00,
2013-07-05 21:58:00,71.6,50.9,29.96,SW,217,0.0,0.0,48,0.00,CLR,,0.00,WeatherDisplay:10.37,2013-07-06 02:58:00,
2013-07-05 22:03:00,71.6,50.9,29.96,SW,217,0.0,0.0,48,0.00,CLR,,0.00,WeatherDisplay:10.37,2013-07-06 03:03:00,
2013-07-05 22:04:00,71.6,50.9,29.96,SW,217,0.0,0.0,48,0.00,CLR,,0.00,WeatherDisplay:10.37,2013-07-06 03:04:00,
2013-07-05 22:09:00,71.4,51.3,29.96,SW,217,0.0,0.0,49,0.00,CLR,,0.00,WeatherDisplay:10.37,2013-07-06 03:09:00,
2013-07-05 22:14:00,71.6,50.9,29.96,SW,217,0.0,0.0,48,0.00,CLR,,0.00,WeatherDisplay:10.37,2013-07-06 03:14:00,
2013-07-05 22:19:00,71.8,51.0,29.96,SW,217,0.0,0.0,48,0.00,CLR,,0.00,WeatherDisplay:10.37,2013-07-06 03:19:00,
2013-07-05 22:24:00,71.8,51.0,29.96,SW,217,0.0,0.0,48,0.00,CLR,,0.00,WeatherDisplay:10.37,2013-07-06 03:24:00,
2013-07-05 22:29:00,72.0,51.2,29.96,SW,217,0.0,0.0,48,0.00,CLR,,0.00,WeatherDisplay:10.37,2013-07-06 03:29:00,
2013-07-05 22:34:00,72.1,51.9,29.96,SW,217,0.0,0.0,49,0.00,CLR,,0.00,WeatherDisplay:10.37,2013-07-06 03:34:00,
2013-07-05 22:39:00,72.1,51.9,29.96,SW,217,0.0,0.0,49,0.00,CLR,,0.00,WeatherDisplay:10.37,2013-07-06 03:39:00,
2013-07-05 22:44:00,72.1,51.9,29.96,SW,217,0.0,0.0,49,0.00,CLR,,0.00,WeatherDisplay:10.37,2013-07-06 03:44:00,
2013-07-05 22:49:00,72.1,51.9,29.99,SW,217,0.0,0.0,49,0.00,CLR,,0.00,WeatherDisplay:10.37,2013-07-06 03:49:00,
2013-07-05 22:54:00,72.1,51.9,29.99,SW,217,0.0,0.0,49,0.00,CLR,,0.00,WeatherDisplay:10.37,2013-07-06 03:54:00,
2013-07-05 22:59:00,72.1,52.5,29.99,SW,217,0.0,0.0,50,0.00,CLR,,0.00,WeatherDisplay:10.37,2013-07-06 03:59:00,
2013-07-05 23:01:00,72.1,52.5,29.99,SW,217,0.0,0.0,50,0.00,CLR,,0.00,WeatherDisplay:10.37,2013-07-06 04:01:00,
2013-07-05 23:02:00,72.1,52.5,29.99,SW,217,0.0,0.0,50,0.00,CLR,,0.00,WeatherDisplay:10.37,2013-07-06 04:02:00,
2013-07-05 23:03:00,72.1,52.5,29.99,SW,217,0.0,0.0,50,0.00,CLR,,0.00,WeatherDisplay:10.37,2013-07-06 04:03:00,
2013-07-05 23:08:00,72.0,52.3,29.99,SW,217,0.0,0.0,50,0.00,CLR,,0.00,WeatherDisplay:10.37,2013-07-06 04:08:00,
2013-07-05 23:13:00,71.8,52.7,29.99,SW,217,0.0,0.0,51,0.00,CLR,,0.00,WeatherDisplay:10.37,2013-07-06 04:13:00,
2013-07-05 23:18:00,71.8,52.7,29.99,SW,217,0.0,0.0,51,0.00,CLR,,0.00,WeatherDisplay:10.37,2013-07-06 04:18:00,
2013-07-05 23:23:00,71.8,53.2,29.99,SW,217,0.0,0.0,52,0.00,CLR,,0.00,WeatherDisplay:10.37,2013-07-06 04:23:00,
2013-07-05 23:28:00,71.6,53.0,29.99,SW,217,0.0,0.0,52,0.00,CLR,,0.00,WeatherDisplay:10.37,2013-07-06 04:28:00,
2013-07-05 23:33:00,71.8,53.7,29.99,SW,217,0.0,0.0,53,0.00,CLR,,0.00,WeatherDisplay:10.37,2013-07-06 04:33:00,
2013-07-05 23:38:00,71.8,53.7,29.99,SW,217,0.0,0.0,53,0.00,CLR,,0.00,WeatherDisplay:10.37,2013-07-06 04:38:00,
2013-07-05 23:43:00,72.0,53.9,29.99,SW,217,0.0,0.0,53,0.00,CLR,,0.00,WeatherDisplay:10.37,2013-07-06 04:43:00,
2013-07-05 23:48:00,72.1,54.1,29.99,SW,217,0.0,0.0,53,0.00,CLR,,0.00,WeatherDisplay:10.37,2013-07-06 04:48:00,
2013-07-05 23:53:00,72.1,54.1,29.99,SW,217,0.0,0.0,53,0.00,CLR,,0.00,WeatherDisplay:10.37,2013-07-06 04:53:00,
2013-07-05 23:58:00,72.3,54.2,29.99,SW,217,0.0,0.0,53,0.00,CLR,,0.00,WeatherDisplay:10.37,2013-07-06 04:58:00,